Flag for Germany Weather past 2 weeks in Paderborn, North Rhine-Westphalia, Germany

Now
54 °F

Passing clouds.


Feels Like: 52 °F
Forecast: 49 / 65 °F
Wind: 6 mph from West

Location: Paderborn / Lippstadt

Current Time: Sep 1, 2015 at 11:04:03 PM

Latest Report: Sep 1, 2015 at 10:20 PM


Visibility: N/A

Pressure: 30.01 "Hg

Humidity: 94%

Dew point: 52 °F

Location of PaderbornLocation

Historic Weather in Paderborn — Graph

°F

Paderborn temperature yesterday

Maximum temperature yesterday: 88 °F (at 12:20 PM)
Minimum temperature yesterday: 63 °F (at 4:50 AM)
Average temperature yesterday: 75 °F

Past Weeks' High & Low Weather Summary

 TemperatureHumidityPressure
High90 °F (Aug 30, 4:20 PM)100% (Aug 27, 7:50 PM)30.27 "Hg (Aug 27, 7:50 PM)
Low48 °F (Aug 29, 5:50 AM)27% (Aug 31, 2:50 PM)29.59 "Hg (Aug 24, 4:20 PM)
Average64 °F68%29.99 "Hg
* Reported Aug 17 9:20 PM — Sep 1 9:50 PM, Paderborn, Weather by CustomWeather, © 2015

Note: Actual official high and low records may vary slightly from our data, if they occured in-between our weather recording intervals... More about our weather records

Advertising

Paderborn weather history for previous 24 hours

 ConditionsComfort  
Time TempWeatherWind HumidityBarometerVisibility
9:50 PM
Tue, Sep 1
52 °FPassing clouds.7 mph100%30.01 "HgN/A
9:20 PM54 °FPassing clouds.8 mph94%30.01 "HgN/A
8:50 PM54 °FScattered clouds.7 mph94%29.98 "HgN/A
8:20 PM54 °FScattered clouds.5 mph100%29.98 "HgN/A
7:50 PM55 °FScattered showers. Scattered clouds.3 mph100%29.95 "HgN/A
7:20 PM55 °FSprinkles. Scattered clouds.3 mph100%29.95 "Hg5 mi
6:50 PM55 °FScattered clouds.5 mph100%29.95 "Hg5 mi
6:20 PM55 °FScattered clouds.6 mph100%29.95 "Hg5 mi
5:50 PM57 °FPartly sunny.7 mph94%29.92 "Hg5 mi
5:20 PM55 °FLight rain. Partly sunny.8 mph100%29.92 "Hg4 mi
4:50 PM57 °FLight rain. Partly sunny.7 mph100%29.92 "Hg4 mi
4:20 PM57 °FLight rain. Partly sunny.6 mph100%29.89 "Hg3 mi
3:50 PM57 °FRain. Fog.8 mph100%29.89 "Hg2 mi
3:20 PM57 °FRain. Fog.5 mph100%29.89 "Hg2 mi
2:50 PM57 °FRain. Fog.7 mph100%29.89 "Hg2 mi
2:20 PM57 °FLight rain. Mostly cloudy.8 mph100%29.86 "Hg4 mi
1:50 PM57 °FLight rain. Mostly cloudy.7 mph100%29.86 "Hg4 mi
1:20 PM59 °FLight rain. Fog.6 mph100%29.86 "Hg2 mi
12:50 PM57 °FLight rain. Fog.6 mph100%29.83 "Hg2 mi
12:20 PM59 °FLight rain. Fog.6 mph94%29.83 "Hg2 mi
11:50 AM57 °FLight rain. Fog.9 mph100%29.83 "Hg3 mi
11:20 AM59 °FRain. Fog.6 mph100%29.80 "Hg2 mi
11:00 AM59 °FRain. Fog.5 mph100%29.80 "Hg2 mi
10:50 AM61 °FLight rain. Fog.5 mph88%29.80 "Hg3 mi
10:20 AM63 °FScattered clouds.5 mph83%29.80 "HgN/A
9:50 AM63 °FMore clouds than sun.3 mph88%29.80 "HgN/A
9:20 AM61 °FLight rain. Partly sunny.5 mph94%29.83 "HgN/A
8:50 AM61 °FLight rain. Partly sunny.9 mph88%29.83 "HgN/A
8:20 AM63 °FPartly sunny.7 mph77%29.83 "HgN/A
7:50 AM63 °FPartly sunny.8 mph83%29.83 "HgN/A
7:20 AM63 °FPassing clouds.10 mph83%29.83 "HgN/A
6:50 AM63 °FPassing clouds.9 mph88%29.83 "HgN/A
5:20 AM66 °FPassing clouds.8 mph83%29.80 "HgN/A
4:50 AM66 °FPassing clouds.5 mph83%29.80 "HgN/A
4:20 AM64 °FPassing clouds.5 mph88%29.83 "HgN/A
3:50 AM66 °FPassing clouds.7 mph83%29.80 "HgN/A
3:20 AM66 °FPassing clouds.7 mph83%29.83 "HgN/A
2:50 AM66 °FPassing clouds.6 mph83%29.83 "HgN/A
2:20 AM66 °FPassing clouds.7 mph83%29.83 "HgN/A
1:50 AM64 °FClear.7 mph88%29.83 "Hg10 mi
1:20 AM66 °FPassing clouds.7 mph88%29.83 "HgN/A
12:50 AM66 °FClear.6 mph88%29.83 "Hg10 mi
12:20 AM64 °FClear.5 mph88%29.83 "Hg10 mi
11:50 PM
Mon, Aug 31
68 °FPassing clouds.6 mph83%29.83 "HgN/A
11:20 PM70 °FPassing clouds.8 mph73%29.83 "HgN/A
Weather by CustomWeather, © 2015

See weather overviewHow to use our weather pages